Weather in Bronnoysund

Norway     65°28′17″N   12°12′26″E
temp.,
°C
wind,
m/s
gust,
m/s
humid.,
%
clouds,
%
prec.,
mm/h
press.,
hPa
HPBL,
m
19 april, mon
mon1923:00+5se44770 0.0 102849
02:00+5se44740 0.0 102743
05:00+4sse34740 0.0 102766
08:00+5sse44690 0.0 102766
11:00+7s33653 0.0 102681
14:00+8sw226817 0.0 1026108
17:00+8nw2264100 0.0 102445
20:00+9se3366100 0.0 102213
20 april, tue
tue2023:00+7se4471100 0.0 102132
02:00+6se447797 0.0 101938
05:00+6se447956 0.0 101736
08:00+6se567863 0.0 101670
11:00+8se567443 0.0 101393
14:00+7sw468184 0.0 1013219
17:00+7sse3480100 0.0 1011119
20:00+6sse3487100 0.1 100975
21 april, wed
wed2123:00+6wnw3394100 0.2 100693
02:00+2n7899100 5.3 1007365
05:00+2nnw2298100 2.9 1007263
08:00+2w1198100 3.3 1006276
11:00+3nw2496100 0.3 1006434
14:00+3n4688100 0.8 1007550
17:00+4n111181100 0.2 1007937
20:00+4n131475100 0.2 10091194
22 april, thu
thu2223:00+3n14157089 0.1 10101398
02:00+3n111362100 0.1 10111655
05:00+3n910615 0.1 10121499
08:00+3n786161 0.2 10121493
11:00+3nnw665784 0.1 10121375
14:00+3nnw555798 0.2 10131176
17:00+3n5659100 0.3 1014997
20:00+3n676191 0.6 10141109
23 april, fri
fri2323:00+3n895695 0.6 10141386
02:00+3nnw895728 1.2 10141441
05:00+2n101169100 0.9 10141286
08:00+3n121364100 1.8 10151653
11:00+3n12136482 0.7 10161637
14:00+3n13136198 1.3 10171731
17:00+3n12136191 0.1 10191836
20:00+3n13146288 0.3 10201669